[[{"header":{"parameterUnit":"m.s-1","parameterCategory":1,"la1":30.2992,"la2":30.254,"lo1":-89.0895,"lo2":-89.0443,"dy":0.0025,"dx":0.0025,"nx":19,"ny":19,"refTime":"2026-05-13T09:00:00:Z","depth":0,"parameterNumber":2,"parameterNumberName":"U-component_of_WINDS"},"data":[0,0,0,1.1408,1.1409,1.1438,1.1438,1.1477,1.1477,0,0,0,0,0,0,0,0,0,0,0,1.1399,1.1399,1.1408,1.1409,1.1438,1.1438,1.1477,1.1477,0,0,0,0,0,0,0,0,0,0,0,1.1399,1.1399,1.1399,1.1409,1.1438,1.1438,1.1477,1.1455,0,0,0,0,0,0,0,0,0,0,1.1427,1.1416,1.1399,1.1399,1.1409,1.1438,1.1438,1.1454,1.1456,1.1464,0,1.1468,0,1.1473,1.1479,1.148,0,0,0,1.1411,1.1414,1.1422,1.1399,1.141,1.1438,1.1425,1.1455,1.1458,1.1467,1.1469,1.147,1.1474,1.148,1.148,1.1515,1.1515,0,0,1.1409,1.1404,1.142,1.1424,1.1417,1.1424,1.1426,1.1457,1.1459,1.1469,1.1471,1.1474,1.148,1.148,1.1515,1.1515,0,0,0,1.1403,1.1402,1.141,1.1422,1.1427,1.1425,1.1427,1.1458,1.1461,1.1471,1.1475,1.148,1.1481,1.1515,1.1515,1.1514,0,0,0,1.1402,1.1399,1.141,1.1407,1.1427,1.1442,1.1428,1.1459,1.1462,1.1475,1.148,1.1481,1.1514,1.1515,1.1514,1.1515,0,0,0,1.1397,1.1399,1.1402,1.1406,1.1418,1.1442,1.1447,1.1459,1.1464,1.148,1.1481,1.1514,1.1515,1.1513,1.1514,1.1523,0,0,0,1.1391,1.1401,1.1402,1.1416,1.1418,1.1441,1.1447,1.1464,1.1477,1.148,1.1514,1.1515,1.1513,1.1514,1.1522,1.1529,1.153,0,0,1.1401,1.1402,1.1411,1.1412,1.1433,1.1437,1.1458,1.1476,1.1484,1.1505,1.1505,1.1514,1.1514,1.1523,1.1543,1.1544,0,0,0,1.1413,1.1419,1.1426,1.1437,1.145,1.1462,1.1477,1.1484,1.1502,1.1492,1.1519,1.152,1.1525,1.1528,1.1529,1.1535,1.1516,1.1516,1.1516,1.142,1.1428,1.1443,1.1455,1.1466,1.1482,1.1493,1.1505,1.151,1.1517,1.1523,1.1534,1.1537,1.1538,1.1544,1.1527,1.1527,1.1527,1.1527,1.1437,1.1448,1.1454,1.1471,1.148,1.1495,1.1511,1.1515,1.1531,1.1529,1.1534,1.1532,1.154,1.1545,1.1527,1.1527,1.1527,1.1527,1.1527,1.1443,1.145,1.1457,1.1475,1.1489,1.1502,1.1517,1.1525,1.1533,1.1538,1.1546,1.1546,1.1548,1.1541,1.1541,1.1542,1.1542,1.1542,1.1542,1.1447,1.1455,1.1466,1.1482,1.1491,1.1504,1.1521,1.1531,1.1545,1.155,1.155,1.1555,1.1538,1.1534,1.1542,1.1542,1.1542,1.1542,1.1542,1.1461,1.1459,1.1476,1.1485,1.1505,1.1519,1.1529,1.1549,1.1559,1.1567,1.1572,1.1558,1.156,1.1559,1.1556,1.1569,1.1569,1.1569,1.1569,1.1467,1.1468,1.1488,1.1502,1.1517,1.1529,1.155,1.1565,1.1579,1.1587,1.1586,1.1582,1.1581,1.1584,1.1583,1.158,1.1599,1.1599,1.1599,1.1477,1.148,1.1496,1.1508,1.1525,1.1539,1.156,1.1579,1.1595,1.16,1.1593,1.1591,1.1586,1.1583,1.1587,1.1585,1.158,0,0]},{"header":{"parameterUnit":"m.s-1","parameterCategory":1,"la1":30.2992,"la2":30.254,"lo1":-89.0895,"lo2":-89.0443,"dy":0.0025,"dx":0.0025,"nx":19,"ny":19,"refTime":"2026-05-13T09:00:00:Z","depth":0,"parameterNumber":3,"parameterNumberName":"V-component_of_WINDS"},"data":[0,0,0,-1.4105,-1.4107,-1.4233,-1.4233,-1.4386,-1.4387,0,0,0,0,0,0,0,0,0,0,0,-1.4061,-1.4062,-1.4105,-1.4108,-1.4233,-1.4233,-1.4385,-1.4387,0,0,0,0,0,0,0,0,0,0,0,-1.4061,-1.4062,-1.4063,-1.4108,-1.4233,-1.4233,-1.4385,-1.4294,0,0,0,0,0,0,0,0,0,0,-1.4174,-1.4126,-1.4061,-1.4063,-1.4109,-1.4233,-1.4234,-1.429,-1.43,-1.4325,0,-1.4344,0,-1.4368,-1.4396,-1.4397,0,0,0,-1.4113,-1.4118,-1.4157,-1.4063,-1.411,-1.4232,-1.4178,-1.4295,-1.4306,-1.4338,-1.4346,-1.4352,-1.437,-1.4397,-1.4398,-1.4521,-1.4521,0,0,-1.4106,-1.4081,-1.415,-1.4164,-1.4143,-1.4174,-1.4182,-1.4302,-1.431,-1.4347,-1.4356,-1.4373,-1.4398,-1.4399,-1.452,-1.4521,0,0,0,-1.4082,-1.4076,-1.4112,-1.4158,-1.4181,-1.4177,-1.4186,-1.4305,-1.4319,-1.4358,-1.4374,-1.4399,-1.4401,-1.452,-1.4521,-1.451,0,0,0,-1.4079,-1.4062,-1.4109,-1.4095,-1.4178,-1.4244,-1.4186,-1.4311,-1.4325,-1.4374,-1.4399,-1.4402,-1.452,-1.452,-1.451,-1.451,0,0,0,-1.4055,-1.4059,-1.4075,-1.4093,-1.4146,-1.4243,-1.4264,-1.4314,-1.4335,-1.4397,-1.4403,-1.452,-1.452,-1.4509,-1.4509,-1.4534,0,0,0,-1.4023,-1.4065,-1.4074,-1.4128,-1.4145,-1.4235,-1.4264,-1.4333,-1.4385,-1.44,-1.452,-1.4521,-1.4509,-1.4509,-1.4533,-1.4549,-1.4554,0,0,-1.4062,-1.4069,-1.4103,-1.4114,-1.4196,-1.4218,-1.4299,-1.4372,-1.4403,-1.448,-1.4483,-1.451,-1.4509,-1.4534,-1.4588,-1.4591,0,0,0,-1.4107,-1.413,-1.4157,-1.4204,-1.4259,-1.4307,-1.4369,-1.4396,-1.4463,-1.4436,-1.4527,-1.4527,-1.4542,-1.4551,-1.4554,-1.4569,-1.4524,-1.4524,-1.4523,-1.4126,-1.416,-1.4218,-1.4267,-1.4312,-1.4375,-1.4416,-1.4463,-1.4487,-1.4507,-1.453,-1.4559,-1.4568,-1.457,-1.4585,-1.4542,-1.4542,-1.4542,-1.4542,-1.4186,-1.4224,-1.4252,-1.4317,-1.4354,-1.4411,-1.4473,-1.4487,-1.4546,-1.4544,-1.456,-1.4555,-1.4573,-1.4587,-1.4542,-1.4542,-1.4542,-1.4542,-1.4542,-1.4202,-1.4226,-1.4256,-1.4327,-1.4378,-1.4427,-1.4481,-1.4513,-1.4544,-1.4559,-1.4587,-1.4587,-1.4591,-1.457,-1.457,-1.457,-1.4571,-1.4571,-1.4571,-1.4206,-1.4241,-1.4281,-1.4342,-1.4375,-1.4424,-1.4487,-1.4522,-1.4569,-1.4588,-1.4589,-1.461,-1.4568,-1.4556,-1.4572,-1.4572,-1.4572,-1.4572,-1.4572,-1.4254,-1.4247,-1.431,-1.4343,-1.4417,-1.4464,-1.4504,-1.4572,-1.4606,-1.4631,-1.4649,-1.4612,-1.4622,-1.4621,-1.4611,-1.4641,-1.4641,-1.4641,-1.4641,-1.4267,-1.4274,-1.4344,-1.4395,-1.445,-1.4491,-1.4561,-1.4611,-1.4662,-1.4685,-1.4685,-1.4676,-1.4672,-1.4684,-1.4681,-1.4673,-1.4718,-1.4718,-1.4718,-1.4298,-1.4312,-1.4364,-1.4411,-1.4471,-1.4521,-1.4588,-1.4647,-1.4704,-1.4722,-1.4703,-1.47,-1.4685,-1.4678,-1.4696,-1.469,-1.4676,0,0]}]]